Simultaneous Nadir Overpasses (SNOs) Predictions

Prediction of SNOs between AQUA and METOP-B Satellite Orbit:

Table of predicted SNOs for the next 14.0 days since TLE Epoch: 5/15/2020
Index Date (AQUA) Time (AQUA) Lat,Lon (AQUA) SZA (AQUA ) Date (METOP-B) Time (METOP-B) Lat,Lon (METOP-B) SZA (METOP-B ) Distance(km) Time Diff (sec)
1 05/16/2020 18:54:42 -73.23, 71.82 126.17 05/16/2020 18:53:35 -73.16, 69.40 126.15 78.11 67
2 05/16/2020 19:44:21 73.82,-121.80 54.45 05/16/2020 19:44:02 73.80,-121.82 54.43 2.99 19
3 05/16/2020 20:33:48 -73.90, 45.67 125.47 05/16/2020 20:34:42 -73.89, 45.73 125.49 2.42 54
4 05/19/2020 14:29:02 -73.47, 137.76 126.52 05/19/2020 14:27:52 -73.41, 136.35 126.54 45.18 70
5 05/19/2020 15:18:35 73.81, -55.34 53.83 05/19/2020 15:18:22 73.84, -55.32 53.86 2.53 13
6 05/19/2020 16:08:02 -73.88, 112.15 126.10 05/19/2020 16:09:03 -73.88, 112.12 126.11 0.90 61
7 05/22/2020 10:03:21 -73.72,-156.33 126.83 05/22/2020 10:02:08 -73.65,-156.69 126.88 13.57 73
8 05/22/2020 10:52:50 73.81, 11.11 53.26 05/22/2020 10:52:44 73.82, 11.05 53.28 2.56 6
9 05/22/2020 11:42:17 -73.87, 178.62 126.68 05/22/2020 11:43:25 -73.87, 178.51 126.68 3.51 68
10 05/25/2020 05:37:37 -73.76, -89.98 127.31 05/25/2020 05:36:28 -73.74, -90.07 127.31 3.47 69
11 05/25/2020 06:27:06 73.85, 77.44 52.79 05/25/2020 06:27:05 73.86, 77.55 52.80 3.19 1
12 05/25/2020 07:16:33 -73.91,-115.03 127.16 05/25/2020 07:17:46 -73.92,-114.99 127.16 1.64 73
13 05/28/2020 01:11:52 -73.75, -23.53 127.78 05/28/2020 01:10:49 -73.78, -23.57 127.75 3.30 63
14 05/28/2020 02:01:21 73.86, 143.88 52.33 05/28/2020 02:01:27 73.84, 143.92 52.31 1.98 6




NCC Satellite Simultaneous Nadir Overpasses (SNOs) Prediction Service
